Location: Radom
(51.4061°N, 21.1577°E)
Time: 03:01:14
(UTC+01:00)

ISS - Visible Passes

Search period start: 24 November 2017 00:00
Search period end: 04 December 2017 00:00
Orbit: 402 x 407 km, 51.6° (Epoch: 24 November)

Date Brightness Start Highest point End Pass type
(mag) Time Alt. Az. Time Alt. Az. Time Alt. Az.
28 Nov -1.1 18:17:15 10° SSW 18:17:51 14° SSW 18:17:51 14° SSW visible
29 Nov -1.9 17:25:32 10° S 17:27:45 19° SSE 17:27:45 19° SSE visible
30 Nov -1.4 16:34:26 10° SSE 16:35:48 12° SE 16:37:11 10° ESE visible
30 Nov -1.9 18:08:30 10° SW 18:10:15 27° SW 18:10:15 27° SW visible
01 Dec -2.8 17:16:25 10° SW 17:19:23 32° SSE 17:20:01 29° SE visible
01 Dec -0.4 18:52:22 10° WSW 18:52:40 12° WSW 18:52:40 12° WSW visible
02 Dec -2.0 16:24:33 10° SSW 16:27:09 22° SE 16:29:44 10° E visible
02 Dec -2.8 18:00:00 10° WSW 18:02:23 44° SW 18:02:23 44° SW visible
03 Dec -3.4 17:07:41 10° SW 17:10:52 52° SSE 17:12:04 32° E visible
03 Dec -0.7 18:44:00 10° W 18:44:42 15° W 18:44:42 15° W visible
